Wind_Speed
25 25 25 25 24 23 22 24 24 24 24 23 21 21 21 22 22 23 23 23 23 23 23 22 21 20 20 20 20 20 19 20 19 19 20 19 19 19 19 19 18 18 19 19
26 25 25 25 25 25 25 25 26 26 28 26 23 23 23 24 24 25 24 23 24 24 23 22 22 21 21 20 20 21 21 20 20 19 20 20 20 20 20 20 20 20 20 20
27 26 26 27 25 25 26 27 27 28 28 26 25 24 24 24 25 26 25 25 25 24 24 23 22 21 21 21 20 21 21 21 21 21 21 21 21 22 21 21 21 22 22 21
28 28 29 27 26 26 27 28 28 29 28 27 26 25 26 26 26 26 27 27 25 25 25 24 23 23 22 22 22 22 22 21 21 22 22 22 23 23 22 22 22 22 22 22
29 30 30 29 28 27 28 30 30 30 30 29 28 28 27 27 28 28 28 27 26 25 24 24 24 23 23 23 23 23 23 23 23 23 23 23 23 23 23 22 23 24 23 23
31 31 31 30 30 29 29 31 29 29 30 29 28 28 28 28 28 28 28 27 26 25 24 24 24 24 24 24 24 24 24 23 24 24 25 24 24 24 24 23 23 23 24 23
32 32 32 31 31 29 30 30 30 30 30 30 30 30 30 30 29 29 29 28 27 26 25 25 25 25 25 25 24 24 24 25 25 25 26 26 26 26 25 24 24 24 23 23
33 32 33 32 31 32 31 29 30 31 31 31 31 31 31 30 30 30 30 29 28 28 27 26 25 25 25 25 25 25 25 26 26 26 26 27 28 27 27 26 25 24 24 23
33 33 32 32 32 32 31 30 31 30 31 32 32 31 31 30 30 30 29 29 29 29 28 27 26 25 25 26 26 26 26 27 27 27 27 28 28 27 26 26 26 26 24 24
32 33 33 32 32 32 33 33 32 32 33 32 32 32 31 31 30 30 29 29 29 29 29 28 27 26 26 25 26 25 26 27 27 28 27 27 28 27 26 27 27 27 26 26
31 31 32 31 31 31 32 32 32 32 32 32 33 33 33 33 32 31 30 30 29 30 29 29 28 28 27 26 26 27 26 26 27 27 28 28 28 28 27 27 27 27 27 27
28 29 31 32 32 32 31 30 29 30 31 32 32 33 33 33 33 32 31 30 30 30 30 30 30 29 28 27 27 26 26 25 26 26 27 28 28 27 26 26 27 27 27 27
27 28 29 30 31 31 31 31 31 31 30 31 30 30 30 31 31 31 31 31 30 30 30 30 30 29 29 28 27 26 26 26 25 25 26 26 26 26 26 26 27 27 28 28
28 28 29 30 30 31 30 30 31 31 31 30 30 30 30 30 30 30 30 31 31 31 30 29 29 29 28 28 27 27 27 26 26 25 25 26 26 27 27 27 27 28 29 29
28 28 28 29 30 30 30 29 30 31 31 30 29 29 29 29 28 29 29 30 31 31 30 30 30 29 29 28 27 27 27 27 27 26 26 26 26 27 28 29 28 29 29 29
28 27 27 28 29 30 30 30 30 30 31 31 30 29 28 28 28 29 29 30 30 30 30 30 30 29 29 29 28 28 27 27 27 27 26 26 26 27 28 28 29 29 29 29
27 27 28 28 28 29 30 30 30 30 31 31 30 29 29 29 29 29 29 30 30 30 29 29 29 29 28 28 28 28 28 28 29 29 28 27 27 27 27 27 28 28 29 29
24 25 26 26 27 28 28 29 29 29 29 29 29 28 28 29 29 28 29 29 28 28 28 28 28 27 27 26 26 26 26 26 27 28 28 28 28 27 27 27 27 27 27 27
22 23 24 26 26 26 26 27 28 28 28 28 29 28 28 27 28 28 28 28 28 28 28 28 27 26 26 26 25 25 25 26 26 26 26 26 25 25 25 25 26 26 26 26
22 21 22 22 23 24 25 26 26 26 26 26 27 27 27 27 27 27 27 27 27 27 27 28 27 27 26 26 26 25 25 25 24 24 24 25 24 24 24 25 25 25 25 25
20 20 21 22 23 24 25 25 25 24 25 25 25 25 26 26 26 27 26 26 26 26 26 26 27 26 26 25 25 25 25 25 24 24 24 24 24 24 23 24 24 24 24 25
20 20 21 21 22 22 23 24 24 23 23 23 24 25 25 25 25 25 25 25 25 25 25 26 27 26 26 26 26 26 25 25 24 24 24 23 23 23 23 23 25 25 25 26
18 19 20 20 20 20 21 22 23 22 22 23 23 24 24 24 24 24 24 24 23 23 24 24 25 25 25 25 25 25 25 25 24 24 23 23 23 23 24 24 24 25 25 26
18 18 19 19 19 19 19 20 21 20 21 22 22 22 22 22 22 22 22 22 22 23 23 23 23 24 24 24 24 24 23 23 23 23 23 24 23 23 24 24 24 24 24 25
18 18 17 18 18 18 18 18 19 19 20 20 19 19 20 20 20 20 20 20 21 21 22 22 22 22 23 23 23 23 22 23 23 23 23 23 23 24 24 24 24 25 25 25
18 18 18 18 18 18 17 17 17 17 17 17 18 18 19 19 19 19 19 19 19 19 19 20 20 21 21 22 22 22 22 23 23 23 23 23 23 23 24 24 24 24 25 25
17 17 17 17 17 17 16 17 17 16 16 17 18 18 18 18 18 19 19 19 19 19 19 19 19 20 21 21 22 22 23 23 23 23 24 24 24 24 24 24 24 24 25 25
Wind_Direction
255 256 256 259 257 256 257 262 265 266 266 266 269 276 277 275 275 279 278 277 279 280 280 280 282 282 280 277 275 274 272 268 264 259 257 257 258 260 262 263 263 262 260 262
255 255 258 261 260 258 259 262 265 265 268 267 266 271 272 271 272 275 276 278 279 280 279 279 279 279 279 278 276 274 271 269 264 261 257 256 257 258 259 261 261 261 260 262
256 256 257 259 262 262 263 262 264 266 269 271 268 268 270 271 271 273 275 276 279 279 278 276 275 275 275 277 277 275 271 268 265 263 260 258 258 258 260 261 261 260 259 260
259 258 257 258 261 263 267 266 264 268 270 271 269 270 270 272 272 273 275 275 277 277 275 272 271 270 271 272 273 273 271 267 266 264 263 262 260 259 259 260 260 261 260 260
257 258 258 259 259 258 260 261 261 263 266 270 270 270 270 270 272 273 274 276 277 275 273 270 269 270 271 270 271 271 269 265 263 263 263 263 263 263 262 261 261 261 260 261
256 257 257 259 260 259 261 261 262 263 264 268 269 269 270 270 270 271 273 275 275 275 273 269 268 268 269 270 270 269 267 265 263 262 263 263 262 263 263 261 262 261 259 261
256 257 257 258 260 261 259 261 262 263 265 267 267 267 269 270 269 270 271 272 273 273 272 271 270 269 268 270 270 267 267 265 263 262 262 263 263 263 264 263 262 261 259 260
253 254 254 255 257 259 261 262 263 263 264 265 266 268 269 269 271 271 271 270 271 271 272 272 271 269 268 268 269 267 265 266 266 264 263 263 262 262 262 263 263 261 260 260
251 251 254 253 255 258 259 260 262 263 266 265 266 268 270 270 271 271 271 270 270 269 269 270 270 270 269 268 268 267 265 265 265 265 264 263 262 260 259 260 261 260 259 260
251 254 256 256 256 258 258 258 262 262 263 264 265 266 268 270 270 269 269 268 268 268 268 267 268 269 269 268 268 269 266 265 265 263 262 262 260 258 259 260 260 257 257 258
254 254 256 257 258 258 258 260 262 261 262 265 267 267 267 267 268 269 269 268 268 269 267 265 266 267 267 268 269 270 270 267 265 264 261 261 260 258 258 258 258 258 258 260
255 255 256 257 260 262 260 260 262 263 264 267 269 268 268 267 267 267 268 267 267 268 266 265 265 265 266 268 268 268 268 268 265 264 263 262 259 258 257 257 257 258 259 259
254 255 258 259 260 261 262 263 264 265 266 268 268 268 269 268 268 267 267 267 266 267 266 265 265 266 266 266 265 264 265 266 267 265 263 260 257 256 254 254 255 255 256 256
257 257 257 258 259 261 263 264 264 265 267 268 269 269 269 269 269 268 267 266 266 267 267 266 266 267 267 264 262 261 262 262 264 265 264 262 259 258 256 255 254 255 257 258
258 258 258 258 260 261 263 265 266 267 267 270 271 270 270 271 270 269 268 268 268 268 267 266 265 265 265 264 262 260 260 261 262 264 264 264 263 261 260 259 258 257 258 259
258 260 261 260 260 260 262 265 268 268 269 271 271 269 270 271 271 270 270 269 269 268 267 266 265 264 263 263 262 262 261 260 260 261 263 263 263 262 262 261 261 259 259 259
265 263 262 263 264 263 263 265 267 268 269 271 271 268 269 269 269 269 270 270 269 267 266 265 263 262 262 262 261 261 261 260 259 259 262 263 264 264 263 261 261 260 259 258
272 269 267 266 267 266 265 266 267 268 269 270 269 269 268 268 269 269 270 269 269 268 266 263 261 260 260 260 260 261 261 261 260 261 261 263 263 262 261 261 260 259 259 257
276 277 273 270 268 269 269 268 269 269 269 269 269 270 270 269 268 268 269 268 267 267 266 264 260 257 258 257 258 260 261 260 260 261 259 259 261 261 260 259 259 260 259 259
278 277 276 274 272 270 270 271 271 271 269 269 269 269 269 269 269 268 268 267 266 266 265 262 259 257 256 256 257 257 258 258 257 258 258 259 261 261 259 260 260 259 259 259
278 278 277 277 276 274 273 272 272 272 270 268 268 269 270 270 269 268 266 265 264 263 264 262 257 254 254 254 255 256 257 257 256 257 259 259 259 260 258 258 258 259 259 258
280 279 279 279 280 277 273 270 270 271 270 269 270 272 271 269 267 266 265 265 264 264 264 261 257 253 253 253 254 254 255 256 256 256 257 258 258 258 257 255 258 260 260 261
284 283 284 283 283 281 277 273 271 271 272 273 273 271 271 269 267 266 266 266 265 264 264 261 256 252 251 252 253 254 255 255 255 256 257 258 258 258 258 258 260 261 261 262
287 286 286 285 284 281 280 277 273 271 273 274 272 271 271 269 268 269 267 265 266 265 263 260 256 252 250 251 252 253 253 253 254 255 257 257 258 258 258 259 260 262 263 263
288 288 287 286 285 283 279 277 275 272 272 273 273 272 271 270 270 270 268 268 268 266 263 259 255 251 249 249 250 251 251 252 253 254 255 257 259 259 259 260 261 262 262 263
290 289 287 286 285 283 281 280 278 275 272 273 273 272 271 272 271 269 266 266 267 268 265 260 255 251 249 249 249 251 252 252 254 255 256 257 259 259 259 260 260 261 262 264
294 292 290 287 283 282 283 284 281 276 274 274 272 273 275 276 273 269 268 268 270 269 266 259 254 252 251 251 252 252 252 252 253 255 256 258 260 261 260 259 258 260 262 264
Height
5799 5800 5801 5802 5802 5802 5803 5803 5803 5803 5802 5801 5800 5801 5800 5800 5799 5798 5797 5797 5797 5797 5796 5795 5795 5794 5794 5794 5793 5793 5793 5794 5794 5795 5797 5798 5800 5801 5802 5803 5804 5805 5806 5807
5792 5794 5794 5794 5794 5795 5796 5796 5796 5796 5796 5794 5794 5795 5794 5794 5793 5793 5792 5792 5792 5791 5790 5790 5789 5789 5789 5788 5788 5788 5788 5788 5789 5790 5791 5793 5794 5795 5797 5798 5799 5800 5801 5802
5785 5787 5787 5787 5788 5788 5789 5789 5789 5788 5789 5788 5788 5788 5788 5787 5787 5787 5786 5786 5786 5785 5784 5784 5784 5784 5784 5783 5783 5783 5783 5783 5784 5784 5785 5786 5788 5789 5791 5792 5794 5795 5796 5797
5777 5779 5778 5782 5782 5782 5782 5782 5782 5781 5781 5780 5781 5781 5781 5781 5780 5780 5779 5779 5779 5779 5778 5778 5778 5778 5778 5778 5778 5777 5777 5778 5779 5779 5779 5780 5782 5783 5785 5786 5787 5789 5790 5791
5770 5770 5771 5773 5774 5774 5774 5773 5774 5774 5774 5774 5774 5773 5774 5774 5773 5773 5773 5773 5772 5771 5771 5771 5771 5771 5771 5772 5771 5771 5771 5772 5773 5773 5774 5775 5776 5777 5778 5779 5781 5782 5783 5785
5761 5762 5763 5765 5765 5765 5765 5764 5766 5766 5766 5767 5766 5766 5766 5766 5765 5765 5765 5765 5765 5764 5764 5764 5764 5764 5765 5765 5765 5765 5765 5765 5766 5767 5768 5769 5770 5771 5772 5773 5774 5775 5777 5778
5752 5753 5753 5756 5756 5757 5758 5757 5758 5757 5757 5758 5758 5757 5758 5757 5758 5758 5758 5758 5757 5757 5756 5757 5757 5757 5757 5758 5758 5758 5758 5759 5760 5760 5761 5762 5763 5764 5765 5766 5767 5769 5770 5772
5742 5743 5746 5746 5747 5748 5748 5748 5749 5749 5749 5749 5750 5750 5749 5749 5749 5750 5749 5750 5750 5750 5750 5750 5750 5750 5750 5750 5750 5750 5751 5751 5752 5753 5754 5755 5756 5757 5758 5759 5760 5762 5763 5765
5733 5734 5734 5735 5737 5738 5739 5740 5740 5740 5740 5740 5741 5741 5741 5741 5741 5741 5741 5742 5742 5742 5742 5742 5742 5743 5743 5743 5743 5743 5743 5744 5745 5745 5746 5747 5748 5749 5751 5752 5754 5755 5756 5758
5723 5724 5726 5727 5728 5729 5730 5731 5731 5731 5731 5732 5732 5733 5733 5733 5732 5733 5733 5733 5734 5734 5734 5734 5734 5735 5735 5735 5735 5735 5735 5736 5737 5738 5739 5739 5740 5742 5743 5745 5747 5748 5749 5751
5714 5716 5716 5718 5719 5720 5721 5722 5722 5722 5722 5723 5723 5723 5724 5724 5724 5724 5725 5725 5725 5725 5726 5726 5727 5727 5727 5728 5728 5727 5728 5728 5729 5730 5730 5731 5732 5734 5736 5738 5739 5741 5742 5744
5706 5707 5708 5709 5710 5711 5712 5713 5713 5714 5714 5714 5714 5714 5714 5715 5715 5715 5716 5716 5716 5716 5717 5718 5718 5719 5719 5720 5720 5720 5720 5721 5721 5722 5723 5723 5725 5726 5728 5730 5731 5733 5734 5736
5698 5699 5700 5701 5702 5702 5703 5704 5705 5705 5705 5705 5705 5705 5705 5705 5705 5706 5706 5707 5707 5708 5708 5709 5710 5711 5711 5711 5712 5712 5713 5714 5714 5715 5715 5716 5717 5719 5721 5722 5723 5725 5726 5728
5689 5690 5691 5692 5693 5694 5694 5695 5695 5696 5696 5696 5696 5696 5696 5696 5696 5697 5697 5697 5698 5699 5699 5700 5701 5702 5703 5703 5704 5704 5705 5706 5707 5707 5708 5709 5710 5711 5713 5714 5716 5717 5718 5719
5680 5681 5682 5683 5684 5685 5685 5686 5686 5687 5687 5687 5687 5687 5687 5687 5687 5688 5688 5688 5689 5689 5690 5691 5692 5693 5694 5694 5695 5696 5697 5698 5699 5699 5700 5701 5702 5703 5704 5706 5707 5708 5709 5711
5672 5673 5674 5674 5675 5676 5677 5677 5678 5678 5678 5678 5678 5678 5678 5678 5679 5679 5679 5679 5679 5680 5681 5681 5683 5684 5685 5685 5686 5688 5689 5689 5690 5691 5692 5693 5694 5695 5695 5697 5698 5699 5701 5702
5664 5665 5666 5666 5667 5667 5668 5668 5669 5669 5669 5669 5669 5669 5669 5669 5669 5670 5670 5670 5670 5671 5671 5672 5673 5674 5675 5676 5677 5679 5680 5681 5682 5683 5684 5684 5685 5686 5687 5688 5690 5691 5692 5693
5657 5657 5657 5657 5657 5658 5658 5659 5659 5659 5659 5659 5659 5659 5660 5660 5660 5660 5661 5661 5661 5661 5662 5663 5664 5665 5666 5667 5669 5670 5671 5672 5673 5674 5675 5676 5677 5678 5679 5680 5681 5682 5682 5684
5650 5650 5649 5649 5649 5649 5649 5649 5650 5650 5650 5650 5650 5650 5651 5651 5651 5651 5651 5652 5652 5652 5653 5654 5655 5657 5658 5659 5661 5662 5663 5664 5665 5666 5667 5668 5669 5670 5670 5672 5673 5674 5675 5677
5643 5642 5642 5641 5641 5641 5641 5641 5641 5641 5641 5641 5641 5641 5642 5642 5642 5642 5642 5642 5643 5643 5644 5645 5646 5648 5649 5651 5652 5654 5655 5656 5658 5659 5660 5661 5662 5662 5663 5665 5666 5667 5668 5670
5637 5636 5635 5634 5634 5633 5633 5633 5633 5633 5633 5633 5633 5633 5633 5633 5633 5633 5633 5633 5634 5634 5635 5635 5636 5638 5640 5642 5644 5646 5647 5649 5650 5652 5653 5653 5654 5655 5656 5657 5658 5659 5661 5662
5631 5630 5629 5628 5627 5626 5626 5626 5626 5625 5625 5625 5625 5625 5624 5624 5624 5624 5624 5625 5625 5626 5626 5626 5627 5629 5632 5634 5636 5638 5639 5641 5643 5644 5645 5646 5647 5648 5649 5650 5652 5653 5653 5654
5625 5624 5623 5622 5621 5620 5619 5619 5618 5618 5618 5618 5617 5617 5616 5616 5616 5616 5616 5616 5617 5617 5617 5618 5619 5621 5623 5625 5627 5629 5631 5633 5635 5636 5638 5639 5640 5641 5642 5643 5644 5645 5646 5647
5620 5619 5617 5616 5615 5614 5613 5612 5612 5612 5612 5611 5610 5609 5609 5608 5608 5608 5608 5608 5609 5609 5609 5610 5612 5613 5615 5617 5620 5622 5624 5625 5627 5629 5630 5631 5632 5634 5635 5636 5637 5638 5639 5639
5615 5613 5612 5611 5609 5608 5607 5606 5606 5605 5605 5604 5603 5603 5602 5602 5602 5601 5601 5602 5602 5602 5602 5603 5604 5606 5608 5610 5612 5615 5617 5618 5620 5621 5623 5624 5625 5626 5627 5628 5629 5630 5631 5631
5610 5608 5607 5605 5604 5602 5601 5600 5600 5600 5599 5598 5598 5597 5596 5596 5595 5595 5595 5595 5595 5595 5595 5596 5597 5599 5601 5603 5606 5608 5609 5611 5612 5614 5615 5616 5617 5619 5620 5620 5621 5622 5623 5623
5605 5603 5602 5600 5599 5597 5596 5596 5595 5594 5594 5593 5593 5592 5591 5590 5590 5589 5589 5589 5589 5589 5589 5590 5591 5593 5594 5597 5599 5601 5602 5604 5605 5607 5608 5609 5610 5611 5612 5613 5614 5615 5615 5616